Total_Precipitation_Accumulation
0.60 0.79 0.89 0.83 0.85 0.91 0.82 0.79 0.78 0.66 0.52 0.57 0.60 0.61 0.56 0.53 0.48 0.47 0.47 0.45 0.47 0.41 0.37 0.30 0.30 0.36 0.50 0.56 0.56 0.58 0.64 0.62 0.57 0.55 0.64 0.75 0.79 0.90 1.00 1.09 1.20 1.22 1.21 1.28
0.61 0.63 0.56 0.59 0.67 0.83 0.86 0.87 0.82 0.72 0.56 0.55 0.60 0.64 0.56 0.51 0.47 0.40 0.36 0.34 0.39 0.36 0.34 0.31 0.32 0.35 0.38 0.43 0.45 0.50 0.54 0.52 0.47 0.44 0.52 0.66 0.79 0.91 1.09 1.29 1.53 1.47 1.35 1.38
0.59 0.52 0.44 0.48 0.59 0.76 0.78 0.73 0.66 0.75 0.68 0.66 0.73 0.80 0.66 0.57 0.51 0.42 0.33 0.33 0.37 0.34 0.29 0.29 0.32 0.36 0.33 0.34 0.41 0.47 0.50 0.51 0.49 0.55 0.73 1.05 1.36 1.52 1.59 1.64 1.88 1.93 1.79 1.73
0.74 0.50 0.41 0.45 0.52 0.61 0.83 0.59 0.51 0.65 0.87 0.85 0.73 0.90 0.63 0.56 0.61 0.47 0.38 0.34 0.34 0.35 0.32 0.30 0.32 0.37 0.31 0.34 0.41 0.48 0.51 0.59 0.61 0.74 1.06 1.51 1.87 2.04 2.02 2.08 2.16 2.27 2.21 2.04
0.62 0.42 0.42 0.47 0.43 0.52 0.78 0.64 0.65 0.72 0.80 0.76 0.53 0.62 0.55 0.55 0.63 0.50 0.44 0.43 0.42 0.37 0.35 0.34 0.36 0.41 0.41 0.43 0.49 0.56 0.66 0.82 0.98 1.10 1.28 1.61 1.79 1.87 2.01 2.15 2.43 2.63 2.71 2.66
0.46 0.36 0.38 0.39 0.38 0.45 0.60 0.74 0.87 0.87 0.87 0.83 0.43 0.43 0.48 0.49 0.47 0.47 0.44 0.47 0.45 0.39 0.34 0.35 0.43 0.48 0.49 0.59 0.67 0.70 0.87 1.03 1.08 1.19 1.31 1.44 1.54 1.68 1.90 2.09 2.35 2.54 2.59 2.65
0.53 0.45 0.36 0.34 0.49 0.53 0.58 0.84 1.17 1.28 1.19 0.82 0.36 0.37 0.44 0.35 0.31 0.35 0.37 0.35 0.35 0.37 0.37 0.39 0.42 0.52 0.56 0.64 0.78 0.85 0.95 1.10 1.15 1.25 1.35 1.36 1.43 1.55 1.73 1.83 1.89 1.93 1.93 2.01
0.53 0.53 0.35 0.31 0.38 0.47 0.49 0.60 0.97 1.17 0.98 0.69 0.41 0.47 0.43 0.28 0.23 0.21 0.25 0.29 0.33 0.42 0.47 0.47 0.48 0.61 0.69 0.78 0.89 1.03 1.09 1.16 1.21 1.29 1.38 1.35 1.45 1.58 1.67 1.63 1.59 1.65 1.69 1.76
0.45 0.45 0.27 0.27 0.27 0.32 0.47 0.48 0.55 0.69 0.56 0.58 0.47 0.41 0.32 0.20 0.19 0.19 0.24 0.34 0.44 0.51 0.57 0.60 0.62 0.70 0.79 0.87 0.96 1.07 1.20 1.27 1.34 1.33 1.39 1.52 1.58 1.60 1.58 1.45 1.42 1.48 1.42 1.39
0.34 0.43 0.35 0.29 0.31 0.32 0.38 0.47 0.58 0.69 0.74 0.70 0.47 0.42 0.40 0.27 0.26 0.29 0.34 0.43 0.58 0.68 0.71 0.75 0.82 0.88 0.93 0.96 1.06 1.16 1.27 1.39 1.38 1.36 1.46 1.63 1.60 1.38 1.24 1.14 1.17 1.20 1.25 1.29
0.25 0.39 0.43 0.37 0.32 0.33 0.37 0.38 0.48 0.58 0.58 0.79 0.90 0.86 0.68 0.63 0.51 0.56 0.60 0.69 0.86 0.92 0.94 0.91 0.97 1.04 1.03 1.04 1.13 1.18 1.27 1.43 1.44 1.34 1.45 1.47 1.28 1.02 0.90 0.92 0.93 0.94 0.95 0.99
0.22 0.35 0.41 0.32 0.22 0.21 0.29 0.29 0.34 0.57 0.59 0.63 0.97 1.00 0.83 0.86 0.84 0.94 1.03 1.18 1.15 1.12 1.15 1.06 1.00 1.02 0.95 0.93 1.04 1.13 1.26 1.33 1.24 1.20 1.20 1.04 0.85 0.74 0.71 0.69 0.68 0.68 0.73 0.72
0.30 0.40 0.50 0.46 0.39 0.28 0.25 0.21 0.22 0.34 0.54 0.63 0.99 1.02 0.77 0.85 0.96 1.13 1.24 1.26 1.08 0.95 0.89 0.85 0.84 0.78 0.74 0.76 0.81 0.86 1.01 1.09 0.89 0.80 0.84 0.80 0.71 0.66 0.64 0.61 0.59 0.58 0.62 0.66
0.32 0.36 0.44 0.50 0.41 0.26 0.23 0.19 0.19 0.30 0.53 0.56 0.70 0.75 0.68 0.80 0.95 1.06 1.09 0.99 0.78 0.66 0.63 0.60 0.54 0.50 0.55 0.57 0.56 0.52 0.57 0.70 0.65 0.58 0.61 0.63 0.61 0.60 0.62 0.63 0.60 0.57 0.58 0.61
0.32 0.33 0.28 0.26 0.20 0.17 0.16 0.17 0.18 0.24 0.31 0.47 0.53 0.52 0.53 0.60 0.62 0.64 0.66 0.64 0.56 0.51 0.43 0.41 0.41 0.39 0.45 0.46 0.47 0.44 0.41 0.44 0.48 0.47 0.47 0.54 0.57 0.57 0.55 0.57 0.55 0.54 0.54 0.55
0.30 0.30 0.20 0.19 0.16 0.15 0.12 0.11 0.15 0.20 0.25 0.33 0.34 0.35 0.31 0.30 0.28 0.26 0.27 0.33 0.31 0.30 0.27 0.30 0.33 0.36 0.41 0.41 0.39 0.41 0.39 0.36 0.36 0.36 0.37 0.45 0.52 0.53 0.55 0.53 0.51 0.50 0.51 0.52
0.32 0.33 0.30 0.21 0.14 0.19 0.17 0.10 0.12 0.17 0.17 0.21 0.27 0.30 0.30 0.24 0.20 0.17 0.15 0.16 0.17 0.19 0.21 0.24 0.27 0.33 0.39 0.39 0.38 0.39 0.38 0.35 0.34 0.35 0.37 0.43 0.45 0.44 0.47 0.50 0.45 0.42 0.46 0.50
0.27 0.33 0.41 0.31 0.28 0.31 0.16 0.08 0.08 0.10 0.12 0.15 0.18 0.19 0.22 0.19 0.19 0.16 0.14 0.14 0.15 0.16 0.18 0.21 0.24 0.29 0.37 0.38 0.39 0.39 0.38 0.36 0.34 0.34 0.36 0.41 0.42 0.42 0.40 0.42 0.39 0.39 0.43 0.48
0.22 0.33 0.50 0.45 0.37 0.21 0.12 0.09 0.09 0.09 0.11 0.13 0.12 0.11 0.11 0.12 0.16 0.15 0.12 0.12 0.12 0.13 0.14 0.17 0.22 0.30 0.36 0.39 0.44 0.45 0.40 0.38 0.37 0.35 0.33 0.35 0.38 0.40 0.40 0.36 0.35 0.37 0.42 0.46
0.27 0.33 0.52 0.52 0.48 0.30 0.14 0.08 0.08 0.11 0.18 0.16 0.14 0.12 0.12 0.14 0.18 0.16 0.13 0.11 0.10 0.10 0.11 0.14 0.18 0.27 0.34 0.40 0.43 0.46 0.46 0.39 0.35 0.35 0.35 0.37 0.37 0.35 0.37 0.37 0.37 0.38 0.44 0.49
0.38 0.43 0.48 0.48 0.47 0.25 0.10 0.08 0.11 0.23 0.24 0.16 0.14 0.13 0.14 0.14 0.14 0.12 0.09 0.08 0.09 0.10 0.11 0.12 0.17 0.25 0.30 0.37 0.41 0.47 0.48 0.37 0.34 0.40 0.44 0.44 0.40 0.41 0.46 0.48 0.46 0.46 0.46 0.49
0.47 0.51 0.47 0.47 0.51 0.32 0.12 0.14 0.21 0.24 0.17 0.13 0.13 0.12 0.12 0.12 0.11 0.10 0.09 0.09 0.10 0.11 0.12 0.13 0.16 0.21 0.26 0.33 0.39 0.43 0.46 0.44 0.43 0.43 0.46 0.46 0.45 0.46 0.50 0.55 0.56 0.57 0.56 0.56
0.44 0.49 0.51 0.44 0.34 0.21 0.16 0.19 0.21 0.19 0.17 0.14 0.13 0.13 0.12 0.11 0.11 0.10 0.11 0.10 0.11 0.11 0.12 0.15 0.17 0.21 0.24 0.32 0.35 0.40 0.44 0.49 0.47 0.46 0.47 0.48 0.49 0.50 0.50 0.53 0.57 0.61 0.60 0.59
0.38 0.38 0.48 0.43 0.26 0.21 0.21 0.20 0.21 0.20 0.17 0.13 0.12 0.13 0.14 0.13 0.13 0.12 0.12 0.11 0.13 0.14 0.15 0.18 0.21 0.24 0.26 0.33 0.38 0.48 0.51 0.49 0.51 0.52 0.53 0.51 0.50 0.50 0.51 0.53 0.54 0.55 0.56 0.55
0.46 0.51 0.53 0.46 0.33 0.29 0.28 0.25 0.23 0.22 0.17 0.13 0.11 0.11 0.14 0.15 0.14 0.15 0.15 0.13 0.13 0.15 0.17 0.20 0.24 0.27 0.28 0.34 0.39 0.49 0.50 0.50 0.54 0.58 0.57 0.54 0.50 0.47 0.48 0.48 0.49 0.51 0.51 0.57
0.44 0.54 0.60 0.55 0.38 0.37 0.32 0.24 0.22 0.22 0.19 0.14 0.11 0.11 0.11 0.13 0.14 0.15 0.14 0.13 0.12 0.13 0.15 0.19 0.21 0.24 0.26 0.31 0.33 0.40 0.45 0.46 0.50 0.55 0.55 0.53 0.55 0.52 0.48 0.47 0.50 0.57 0.58 0.64